Вернуться в каталог

DEB GONETS

АктивенPO
NORAD 47252·DEBRIS·🇷🇺 Russia
Это название спутника еще не подтверждено официальными источниками.

Запущен Dec 3, 2020 с Plesetsk Cosmodrome

Loading…

Ближайшие Пролёты (ближайшие 24 часа)

TLE

СвежийSource: Space-Track

Эпоха: Sep 14, 2026, 09:17 UTC

1 47252U 20091E   26257.38709361  .00000007  00000-0 -19368-4 0  9990
2 47252  82.4946 245.7665 0015723   6.7119 353.4169 12.43066057261196

Отслеживайте DEB GONETS в реальном времени с AllMySat

Download on the App Store